Location: Academy at Carrie F Thomas
(32.8490°N, 97.2053°W)
Time: 20:29:19
(UTC+00:00)

Cosmos 2228 Rocket - Pass Details

Date: 08 July 2022
Orbit: 618 x 651 km, 82.5° (Epoch: 17 August)

Event Time Altitude Azimuth Distance (km) Brightness Sun altitude
Rises 09:04:19 0° 3° (N) 2,925 7.4 -24.1°
Reaches altitude 10° 09:06:41 10° 11° (NNE) 2,020 6.5 -23.8°
Maximum altitude 09:10:52 38° 80° (E) 973 4.4 -23.2°
Enters shadow 09:13:49 17° 141° (SE) 1,588 5.0 -22.8°
